ONEWEB-0567 (55147 NORAD) Tracking and Keplerian Element Data

This shows tracking and keplerian element data for the satellite.

Feedback or suggestion? Click here.




ElementValue
Catalog55147
NameONEWEB-0567
Epoch Orbit76
Epoch Day14.33334491
Epoch Year2023
RAAN283.9569
Inclination86.5097
Eccentricity0.0012844
Argument of Perigee210.7548
Mean Anonmoly142.7108
Mean Motion14.91851692
Decay Rate-0.00043126
L11 55147U 23004H 23014.33334491 -.00043126 00000+0 -43002-2 0 9999
L22 55147 86.5097 283.9569 0012844 210.7548 142.7108 14.91851692 769



Live tracking and technical data element details for ONEWEB-0567 (NORAD 55147). ONEWEB-0567 can be tracked NOW for your location showing map with azimuth and elevation plus other details from your city location.







IsCatalogInMostPopularTable: catalog: 55147, numindb: 3
Update: records affected: 1



GetName: 55147 ONEWEB-0567

Hit Count: updated at: Tue, 07 Feb 2023 14:30:50 GMT